Flag for U.S.A. Weather past 2 weeks in Kodiak, Alaska, U.S.A.

Now
62 °F

Broken clouds.


Feels Like: 62 °F
Forecast: 51 / 58 °F
Wind: 13 mph from South

Location: Kodiak Weather Reporting Station

Current Time: Jul 4, 2015 at 3:24:01 PM

Latest Report: Jul 4, 2015 at 2:53 PM


Visibility: 10 mi

Pressure: 30.00 "Hg

Humidity: 75%

Dew point: 54 °F

Location of KodiakLocation

Historic Weather in Kodiak — Graph

°F

Kodiak temperature yesterday

Maximum temperature yesterday: 61 °F (at 11:53 AM)
Minimum temperature yesterday: 49 °F (at 5:53 AM)
Average temperature yesterday: 56 °F

Past Weeks' High & Low Weather Summary

 TemperatureHumidityPressure
High73 °F (Jul 2, 2:53 PM)100% (Jun 20, 8:53 AM)30.18 "Hg (Jun 20, 8:53 AM)
Low49 °F (Jul 2, 12:53 AM)37% (Jul 2, 2:53 PM)29.69 "Hg (Jun 27, 6:53 PM)
Average54 °F87%29.97 "Hg
* Reported Jun 19 1:53 PM — Jul 4 1:53 PM, Kodiak, Weather by CustomWeather, © 2015

Note: Actual official high and low records may vary slightly from our data, if they occured in-between our weather recording intervals... More about our weather records

Advertising

Kodiak weather history for previous 24 hours

 ConditionsComfort  
Time TempWeatherWind HumidityBarometerVisibility
1:53 PM
Sat, Jul 4
62 °FBroken clouds.15 mph80%29.98 "Hg10 mi
12:53 PM59 °FBroken clouds.9 mph87%29.97 "Hg10 mi
11:53 AM56 °FMore clouds than sun.13 mph97%29.96 "Hg10 mi
10:53 AM55 °FFog.9 mph96%29.95 "Hg1 mi
9:53 AM54 °FLight rain. Fog.14 mph97%29.94 "Hg2 mi
8:53 AM54 °FLight rain. Fog.14 mph97%29.94 "Hg2 mi
7:53 AM54 °FLight rain. Fog.20 mph93%29.95 "Hg1 mi
6:53 AM54 °FLight rain. Fog.17 mph93%29.96 "Hg2 mi
5:53 AM53 °FLight rain. Fog.20 mph96%29.97 "Hg3 mi
5:02 AM52 °FRain. Fog.21 mph97%30.00 "Hg2 mi
4:53 AM52 °FRain. Fog.18 mph97%30.01 "Hg3 mi
3:53 AM52 °FLight rain. Fog.18 mph97%30.01 "Hg3 mi
2:53 AM52 °FLight rain. Fog.17 mph93%30.04 "Hg2 mi
1:53 AM54 °FOvercast.14 mph90%30.04 "Hg10 mi
1:01 AM54 °FOvercast.12 mph90%30.05 "Hg10 mi
11:53 PM
Fri, Jul 3
55 °FLight rain. Overcast.13 mph87%30.08 "Hg10 mi
10:53 PM55 °FLight rain. Overcast.12 mph83%30.08 "Hg10 mi
9:53 PM56 °FCloudy.10 mph81%30.09 "Hg10 mi
8:53 PM56 °FCloudy.9 mph81%30.10 "Hg10 mi
7:53 PM57 °FCloudy.9 mph74%30.11 "Hg10 mi
6:53 PM57 °FBroken clouds.9 mph78%30.12 "Hg10 mi
5:53 PM58 °FBroken clouds.9 mph72%30.13 "Hg10 mi
4:53 PM58 °FBroken clouds.10 mph81%30.14 "Hg10 mi
3:53 PM59 °FBroken clouds.14 mph78%30.14 "Hg10 mi
Weather by CustomWeather, © 2015

See weather overviewHow to use our weather pages